STARLINK-11449, 63012

Orbit data source: Space-Track

STARLINK-11449, 63012 is a payload satellite owned by SpaceX/Seattle (US) in LEO that was launched on Sat, 15 Feb 2025 UTC via an FALCON 9 launch vehicle from the Air Force Eastern Test Range (AFETR). Payload-class satellites include a variety of spacecraft equipped with specific instruments for various scientific and technological missions. These include communications satellites like Starlink; space stations such as the ISS; scientific satellites like the Hubble; Earth observation satellites from companies like Planet Labs, Umbra, and HawkEye 360; GPS; miniature CubeSats for education and research; and military/defense satellites.

Loading next visibility...
Identifier
63012, 2025-032H
Orbit
LEO
Country
Flag of USUS
Related business
Manufacturer
SpaceX/Seattle
Mission
Operational Commercial Communications
Bus & Motor
STARLINK V2MD, Unknown motor
Mass
960 kg wet, ~910 kg dry
Launch date (UTC)
2025-02-15 (8 months ago)
Launch vehicle
FALCON 9
Launch site
Air Force Eastern Test Range (AFETR)
Object type
Payload
Rocket body
Debris
Shape & HBR
Box + 2 Pan, 18.1 m
Radar Cross Section
36.964 m², Large (>1 m²)

Expand to show TLE details & history
Last TLE update: 22 hours ago

TLE from 22 hours ago
0 STARLINK-11449
1 63012U 25032H   25300.92256957  .00244690  00000-0  18458-2 0  9992
2 63012  42.9998 275.5573 0001195 259.9691 100.1042 15.70955723 41339
Epoch: 2025-10-27T22:08Z
TLE epoch observation values (Epoch: 2025-10-27T22:08:30.010Z)
Latitude
-0.00003°
Longitude
-93.08523°
Altitude
356.077 km
Speed
7.697 km/s
True Right ascension
18h 22m 13s
True Declination
0° 00' 00"
Sunlit
Object was in daylight at epoch
Visualization orbit readout
Latitude
Unknown
Longitude
Unknown
Altitude
Unknown
Speed
Unknown
Apparent Right ascension
Unknown
Apparent Declination
Unknown
Sunlit
N/A
Visualization observer readout
Local Sidereal Time
15:12:55
Azimuth
Unknown
Elevation
Unknown
Doppler factor
Unknown
Orbital elements
Apogee altitude
358.951 km
Perigee altitude
357.341 km
Semi-major axis
6,736.283 km
Eccentricity
0.00012
Inclination
42.9998°
RAAN
275.5573°
Arg. of periapsis
259.9691°
True anomaly
100.11768°
Mean anomaly
100.1042°
Eccentric anomaly
100.11094°
Mean motion
3.92566 °/min
Orbital period
91.7 mins
BSTAR
0.0018458
Loading maneuver chart data...
Computing Atmospheric mass density...
Loading historical data...
Loading historical data...
Loading historical data...
Loading historical data...
Loading historical data...
Loading historical data...
Loading historical data...

Documentation

Showing up to 5 results
|